KB3KAV Weather Reports


Display with metric or nautical units.
time (UTC)temp
F
wind
direction
speed
MPH
gust
MPH
rain 1hr
in
rain 24hr
in
rain mn
in
humidity
%
barometer
mb
20260906090242 53 87 0.0 0.0 0.00 0.00 0.00 95 1044.1
20260906085241 53 87 0.0 0.0 0.00 0.00 0.00 95 1044.0
20260906084241 53 88 0.0 0.0 0.00 0.00 0.00 95 1043.8
20260906083238 53 85 0.0 0.0 0.00 0.00 0.00 95 1043.9
20260906082234 53 85 0.0 0.0 0.00 0.00 0.00 95 1043.8
20260906081231 53 85 0.0 0.0 0.00 0.00 0.00 95 1043.6
20260906080230 54 83 0.0 0.0 0.00 0.00 0.00 95 1043.5
20260906075229 53 86 0.0 0.0 0.00 0.00 0.00 95 1043.5
20260906074224 54 86 0.0 0.0 0.00 0.00 0.00 95 1043.7
20260906073225 54 86 0.0 0.0 0.00 0.00 0.00 95 1043.7
20260906072222 54 88 0.0 0.0 0.00 0.00 0.00 95 1043.6
20260906071217 54 87 0.0 0.0 0.00 0.00 0.00 95 1043.5
20260906070216 54 88 0.0 0.0 0.00 0.00 0.00 95 1043.4
20260906065210 54 88 0.0 0.0 0.00 0.00 0.00 95 1043.3
20260906064207 54 88 0.0 0.0 0.00 0.00 0.00 95 1043.5
20260906063203 55 87 0.0 0.0 0.00 0.00 0.00 95 1043.5
20260906062203 55 87 0.0 0.0 0.00 0.00 0.00 95 1043.5
20260906061200 55 87 0.0 0.0 0.00 0.00 0.00 95 1043.6
20260906060159 55 87 0.0 0.0 0.00 0.00 0.00 95 1043.6
20260906055156 55 88 0.0 0.0 0.00 0.00 0.00 95 1043.7
20260906054151 55 87 0.0 0.0 0.00 0.00 0.00 95 1043.4
20260906053149 55 88 0.0 0.0 0.00 0.00 0.00 95 1043.6
20260906052147 56 89 0.0 0.0 0.00 0.00 0.00 95 1043.6
20260906051143 56 89 0.0 0.0 0.00 0.00 0.00 95 1043.7
20260906050139 56 89 0.0 0.0 0.00 0.00 0.00 95 1043.7
20260906045139 56 88 0.0 0.0 0.00 0.00 0.00 95 1043.6
20260906044136 56 90 0.0 0.0 0.00 0.00 0.00 95 1043.6
20260906043133 56 90 0.0 0.0 0.00 0.00 0.00 95 1043.7
20260906042133 57 90 0.0 0.0 0.00 0.00 0.00 95 1043.7
20260906041129 57 89 0.0 0.0 0.00 0.00 0.00 95 1043.5
20260906040126 57 93 0.0 0.0 0.00 0.00 0.00 95 1043.8
20260906035123 57 92 0.0 0.0 0.00 0.00 0.00 95 1043.5
20260906034124 57 87 0.0 0.0 0.00 0.00 0.00 95 1043.5
20260906033120 57 87 0.0 0.0 0.00 0.00 0.00 95 1043.4
20260906032116 57 87 0.0 0.0 0.00 0.00 0.00 95 1043.1
20260906031113 58 87 0.0 0.0 0.00 0.00 0.00 95 1043.2
20260906030113 58 87 0.0 0.0 0.00 0.00 0.00 95 1043.3
20260906025111 58 87 0.0 0.0 0.00 0.00 0.00 95 1043.1
20260906024107 59 87 0.0 0.0 0.00 0.00 0.00 95 1042.8
20260906023103 59 87 0.0 0.0 0.00 0.00 0.00 95 1042.8
20260906022100 59 87 0.0 0.0 0.00 0.00 0.00 95 1043.1
20260906021054 59 87 0.0 0.0 0.00 0.00 0.00 95 1042.8
20260906020054 59 85 0.0 0.0 0.00 0.00 0.00 95 1043.1
20260906015053 59 89 0.0 0.0 0.00 0.00 0.00 95 1043.1
20260906014050 60 89 0.0 0.0 0.00 0.00 0.00 95 1043.1
20260906013046 60 87 0.0 0.0 0.00 0.00 0.00 95 1042.7
20260906012046 60 86 0.0 0.0 0.00 0.00 0.00 95 1042.8
20260906011042 60 83 1.0 1.0 0.00 0.00 0.00 95 1042.7
20260906010040 60 89 0.0 0.0 0.00 0.00 0.00 95 1042.6
20260906005038 61 88 0.0 1.0 0.00 0.00 0.00 95 1042.4
20260906004039 61 89 0.0 0.0 0.00 0.00 0.00 95 1042.5
20260906003036 61 85 1.0 1.0 0.00 0.00 0.00 95 1042.1
20260906002031 62 84 0.0 0.0 0.00 0.00 0.00 94 1042.3
20260906001027 62 87 0.0 1.0 0.00 0.00 0.00 94 1042.3
20260906000024 63 87 1.0 1.0 0.00 0.00 0.00 93 1041.9
20260905235019 63 88 0.0 0.0 0.00 0.00 0.00 92 1041.9
20260905234014 64 88 0.0 0.0 0.00 0.00 0.00 91 1041.7
20260905233015 65 88 0.0 0.0 0.00 0.00 0.00 89 1041.7
20260905232012 66 88 0.0 0.0 0.00 0.00 0.00 87 1041.7
20260905231009 66 88 0.0 0.0 0.00 0.00 0.00 86 1041.8
20260905230006 67 81 1.0 1.0 0.00 0.00 0.00 86 1041.5
20260905225002 68 88 0.0 1.0 0.00 0.00 0.00 85 1041.7
20260905224002 69 89 0.0 1.0 0.00 0.00 0.00 84 1041.6
20260905223001 70 90 1.0 1.0 0.00 0.00 0.00 81 1041.6
20260905221956 73 91 0.0 0.0 0.00 0.00 0.00 77 1041.4
20260905220955 72 91 1.0 1.0 0.00 0.00 0.00 74 1041.4
20260905215949 73 113 1.0 1.0 0.00 0.00 0.00 72 1041.4
20260905214948 74 96 1.0 1.0 0.00 0.00 0.00 68 1041.3
20260905213943 75 97 0.0 0.0 0.00 0.00 0.00 65 1041.2
20260905212940 76 154 4.0 7.0 0.00 0.00 0.00 62 1041.0
20260905211940 77 106 2.0 3.0 0.00 0.00 0.00 60 1041.1
20260905210938 76 120 2.0 3.0 0.00 0.00 0.00 60 1041.1
20260905205938 77 99 0.0 0.0 0.00 0.00 0.00 60 1041.0
20260905204937 75 80 1.0 1.0 0.00 0.00 0.00 64 1040.9
20260905203932 75 37 2.0 3.0 0.00 0.00 0.00 64 1041.0
20260905202929 75 140 4.0 6.0 0.00 0.00 0.00 62 1040.9
20260905201926 76 96 1.0 2.0 0.00 0.00 0.00 60 1041.1
20260905200921 78 132 1.0 2.0 0.00 0.00 0.00 53 1040.9
20260905195921 77 113 1.0 1.0 0.00 0.00 0.00 58 1041.0
20260905194918 74 101 5.0 6.0 0.00 0.00 0.00 63 1040.9
20260905193917 74 109 1.0 1.0 0.00 0.00 0.00 66 1041.0
20260905192913 76 89 2.0 3.0 0.00 0.00 0.00 60 1040.6
20260905191908 79 93 2.0 2.0 0.00 0.00 0.00 56 1040.8
20260905190908 76 98 0.0 1.0 0.00 0.00 0.00 57 1040.9
20260905185904 78 7 1.0 2.0 0.00 0.00 0.00 55 1041.1
20260905184904 76 146 2.0 2.0 0.00 0.00 0.00 60 1041.2
20260905183903 76 103 1.0 1.0 0.00 0.00 0.00 59 1041.2
20260905182859 76 95 0.0 0.0 0.00 0.00 0.00 57 1041.4
20260905181854 76 143 3.0 3.0 0.00 0.00 0.00 56 1041.6
20260905180853 77 76 2.0 3.0 0.00 0.00 0.00 57 1041.1
20260905175849 75 97 1.0 1.0 0.00 0.00 0.00 62 1041.1
20260905174850 74 125 4.0 5.0 0.00 0.00 0.00 63 1041.3
20260905173847 75 115 2.0 3.0 0.00 0.00 0.00 62 1041.6
20260905172843 73 86 1.0 1.0 0.00 0.00 0.00 62 1041.8
20260905171843 74 90 3.0 3.0 0.00 0.00 0.00 60 1041.5
20260905170842 75 158 2.0 3.0 0.00 0.00 0.00 64 1041.9
20260905165836 74 105 0.0 0.0 0.00 0.00 0.00 63 1041.9
20260905164832 74 204 3.0 3.0 0.00 0.00 0.00 62 1041.9
20260905163828 75 273 3.0 5.0 0.00 0.00 0.00 62 1042.0
20260905162826 74 125 3.0 3.0 0.00 0.00 0.00 62 1041.9
20260905161826 73 78 4.0 6.0 0.00 0.00 0.00 64 1042.3
20260905160824 74 96 3.0 5.0 0.00 0.00 0.00 65 1042.4
20260905155819 73 95 1.0 2.0 0.00 0.00 0.00 66 1042.5
20260905154819 71 110 2.0 2.0 0.00 0.00 0.00 70 1042.5
20260905153815 71 115 3.0 5.0 0.00 0.00 0.00 69 1042.5
20260905152811 71 156 7.0 9.0 0.00 0.00 0.00 70 1042.5
20260905151812 71 197 3.0 3.0 0.00 0.00 0.00 71 1042.2
20260905150807 71 147 5.0 6.0 0.00 0.00 0.00 71 1042.2
20260905145804 71 149 3.0 3.0 0.00 0.00 0.00 70 1041.9
20260905144803 72 177 5.0 7.0 0.00 0.00 0.00 70 1042.1
20260905143803 72 84 1.0 1.0 0.00 0.00 0.00 69 1042.2
20260905142803 72 138 8.0 10.0 0.00 0.00 0.00 70 1042.2
20260905141759 72 103 1.0 1.0 0.00 0.00 0.00 71 1042.1
20260905140756 72 98 1.0 1.0 0.00 0.00 0.00 71 1042.1
20260905135755 72 127 2.0 3.0 0.00 0.00 0.00 72 1042.4
20260905134751 71 152 3.0 3.0 0.00 0.00 0.00 73 1042.1
20260905133751 71 150 3.0 3.0 0.00 0.00 0.00 78 1042.1
20260905132745 70 117 1.0 2.0 0.00 0.00 0.00 76 1042.0
20260905131741 69 128 1.0 1.0 0.00 0.00 0.00 82 1042.2
20260905130737 68 93 2.0 2.0 0.00 0.00 0.00 84 1042.0
20260905125738 68 119 0.0 1.0 0.00 0.00 0.00 86 1042.0
20260905124735 69 118 0.0 1.0 0.00 0.00 0.00 82 1042.1
20260905123731 68 113 1.0 1.0 0.00 0.00 0.00 86 1042.1
20260905122728 68 113 1.0 1.0 0.00 0.00 0.00 84 1042.3
20260905121723 66 123 1.0 1.0 0.00 0.00 0.00 88 1042.2
20260905120718 66 104 1.0 1.0 0.00 0.00 0.00 87 1042.2
20260905115713 64 94 0.0 0.0 0.00 0.00 0.00 91 1042.4
20260905114708 66 103 1.0 1.0 0.00 0.00 0.00 88 1042.2
20260905113706 63 95 0.0 0.0 0.00 0.00 0.00 92 1041.9
20260905112701 60 94 0.0 0.0 0.00 0.00 0.00 95 1042.0
20260905111657 59 82 0.0 0.0 0.00 0.00 0.00 95 1041.8
20260905110656 59 82 0.0 0.0 0.00 0.00 0.00 95 1041.8
20260905105652 59 81 0.0 0.0 0.00 0.00 0.00 95 1041.9
20260905104652 59 82 0.0 0.0 0.00 0.00 0.00 95 1041.6
20260905103649 59 84 0.0 0.0 0.00 0.00 0.00 95 1041.7
20260905102646 60 84 0.0 0.0 0.00 0.00 0.00 95 1041.3
20260905101647 60 89 0.0 0.0 0.00 0.00 0.00 95 1041.3
20260905100642 60 89 0.0 0.0 0.00 0.00 0.00 95 1041.2
20260905095642 60 83 0.0 0.0 0.00 0.00 0.00 95 1041.2
20260905094638 60 83 0.0 0.0 0.00 0.00 0.00 95 1041.1
20260905093638 61 88 0.0 0.0 0.00 0.00 0.00 95 1041.0
20260905092634 61 88 0.0 0.0 0.00 0.00 0.00 95 1041.0
20260905091629 62 88 0.0 0.0 0.00 0.00 0.00 95 1041.1